Time,TemperatureF,DewpointF,PressureIn,WindDirection,WindDirectionDegrees,WindSpeedMPH,WindSpeedGustMPH,Humidity,HourlyPrecipIn,Conditions,Clouds,dailyrainin,SolarRadiationWatts/m^2,SoftwareType,DateUTC
2013-03-19 00:10:00,63.2,17.0,29.81,SW,234,0.0,0.0,17,0.00,,,0.00,0,weatherlink.com 1.10,2013-03-19 06:10:00,
2013-03-19 00:25:00,61.6,17.0,29.80,SW,234,0.0,0.0,18,0.00,,,0.00,0,weatherlink.com 1.10,2013-03-19 06:25:00,
2013-03-19 00:40:00,60.5,19.0,29.80,SW,234,0.0,1.0,20,0.00,,,0.00,0,weatherlink.com 1.10,2013-03-19 06:40:00,
2013-03-19 00:55:00,60.5,19.0,29.81,SW,234,2.0,2.0,20,0.00,,,0.00,0,weatherlink.com 1.10,2013-03-19 06:55:00,
2013-03-19 01:10:00,61.0,18.0,29.81,SW,234,0.0,2.0,19,0.00,,,0.00,0,weatherlink.com 1.10,2013-03-19 07:10:00,
2013-03-19 01:25:00,61.2,18.0,29.81,SW,234,0.0,2.0,19,0.00,,,0.00,0,weatherlink.com 1.10,2013-03-19 07:25:00,
2013-03-19 01:40:00,60.2,19.0,29.81,SW,234,0.0,1.0,20,0.00,,,0.00,0,weatherlink.com 1.10,2013-03-19 07:40:00,
2013-03-19 01:55:00,59.8,17.0,29.81,SW,234,0.0,3.0,19,0.00,,,0.00,0,weatherlink.com 1.10,2013-03-19 07:55:00,
2013-03-19 02:10:00,59.9,17.0,29.81,SW,234,1.0,2.0,19,0.00,,,0.00,0,weatherlink.com 1.10,2013-03-19 08:10:00,
2013-03-19 02:25:00,59.3,17.0,29.82,SW,234,1.0,2.0,19,0.00,,,0.00,0,weatherlink.com 1.10,2013-03-19 08:25:00,
2013-03-19 02:40:00,59.5,17.0,29.82,SW,234,1.0,3.0,19,0.00,,,0.00,0,weatherlink.com 1.10,2013-03-19 08:40:00,
2013-03-19 02:55:00,58.8,16.0,29.82,SW,234,1.0,3.0,19,0.00,,,0.00,0,weatherlink.com 1.10,2013-03-19 08:55:00,
2013-03-19 03:10:00,58.0,17.0,29.82,SW,234,0.0,1.0,20,0.00,,,0.00,0,weatherlink.com 1.10,2013-03-19 09:10:00,
2013-03-19 03:26:00,57.1,17.0,29.81,SW,234,0.0,0.0,21,0.00,,,0.00,0,weatherlink.com 1.10,2013-03-19 09:26:00,
2013-03-19 03:41:00,56.4,18.0,29.81,SW,234,0.0,0.0,22,0.00,,,0.00,0,weatherlink.com 1.10,2013-03-19 09:41:00,
2013-03-19 03:56:00,55.7,17.0,29.81,SW,234,0.0,0.0,22,0.00,,,0.00,0,weatherlink.com 1.10,2013-03-19 09:56:00,
2013-03-19 04:41:00,52.9,17.0,29.81,SW,234,1.0,2.0,24,0.00,,,0.00,0,weatherlink.com 1.10,2013-03-19 10:41:00,
2013-03-19 04:56:00,52.4,17.0,29.81,SW,234,0.0,0.0,25,0.00,,,0.00,0,weatherlink.com 1.10,2013-03-19 10:56:00,
2013-03-19 05:11:00,52.0,17.0,29.82,SW,234,1.0,4.0,25,0.00,,,0.00,0,weatherlink.com 1.10,2013-03-19 11:11:00,
2013-03-19 05:26:00,50.6,17.0,29.82,SW,234,1.0,2.0,26,0.00,,,0.00,0,weatherlink.com 1.10,2013-03-19 11:26:00,
2013-03-19 05:41:00,50.0,16.0,29.83,SW,234,0.0,2.0,26,0.00,,,0.00,0,weatherlink.com 1.10,2013-03-19 11:41:00,
2013-03-19 05:56:00,51.2,17.0,29.83,SW,234,1.0,2.0,26,0.00,,,0.00,0,weatherlink.com 1.10,2013-03-19 11:56:00,
2013-03-19 06:11:00,51.6,17.0,29.84,SW,234,1.0,2.0,25,0.00,,,0.00,0,weatherlink.com 1.10,2013-03-19 12:11:00,
2013-03-19 06:26:00,51.5,17.0,29.84,SW,234,0.0,2.0,25,0.00,,,0.00,0,weatherlink.com 1.10,2013-03-19 12:26:00,
2013-03-19 06:56:00,51.6,18.0,29.84,SW,234,0.0,1.0,26,0.00,,,0.00,0,weatherlink.com 1.10,2013-03-19 12:56:00,
2013-03-19 07:11:00,51.5,17.0,29.84,SW,234,0.0,0.0,26,0.00,,,0.00,5,weatherlink.com 1.10,2013-03-19 13:11:00,
2013-03-19 07:26:00,51.8,18.0,29.85,SW,234,0.0,0.0,26,0.00,,,0.00,9,weatherlink.com 1.10,2013-03-19 13:26:00,
2013-03-19 07:41:00,51.8,19.0,29.85,SW,234,0.0,0.0,27,0.00,,,0.00,23,weatherlink.com 1.10,2013-03-19 13:41:00,
2013-03-19 07:56:00,53.8,19.0,29.86,SW,234,0.0,0.0,26,0.00,,,0.00,83,weatherlink.com 1.10,2013-03-19 13:56:00,
2013-03-19 08:11:00,55.7,20.0,29.86,SW,234,0.0,0.0,25,0.00,,,0.00,144,weatherlink.com 1.10,2013-03-19 14:11:00,
2013-03-19 08:27:00,57.4,21.0,29.86,SW,234,1.0,2.0,24,0.00,,,0.00,230,weatherlink.com 1.10,2013-03-19 14:27:00,
2013-03-19 08:41:00,58.2,20.0,29.87,SW,234,1.0,4.0,23,0.00,,,0.00,264,weatherlink.com 1.10,2013-03-19 14:41:00,
2013-03-19 08:56:00,58.9,21.0,29.87,SW,234,3.0,4.0,23,0.00,,,0.00,237,weatherlink.com 1.10,2013-03-19 14:56:00,
2013-03-19 09:11:00,59.3,20.0,29.87,SW,234,1.0,4.0,22,0.00,,,0.00,250,weatherlink.com 1.10,2013-03-19 15:11:00,
2013-03-19 09:27:00,60.5,21.0,29.87,SW,234,2.0,5.0,22,0.00,,,0.00,311,weatherlink.com 1.10,2013-03-19 15:27:00,
2013-03-19 09:57:00,63.1,22.0,29.88,SW,234,2.0,4.0,21,0.00,,,0.00,381,weatherlink.com 1.10,2013-03-19 15:57:00,
2013-03-19 10:12:00,64.9,23.0,29.88,SW,234,3.0,6.0,20,0.00,,,0.00,568,weatherlink.com 1.10,2013-03-19 16:12:00,
2013-03-19 10:27:00,65.9,24.0,29.88,SW,234,4.0,7.0,20,0.00,,,0.00,476,weatherlink.com 1.10,2013-03-19 16:27:00,
2013-03-19 10:42:00,67.0,23.0,29.88,SW,234,4.0,9.0,19,0.00,,,0.00,506,weatherlink.com 1.10,2013-03-19 16:42:00,
2013-03-19 10:57:00,68.3,24.0,29.88,SW,230,3.0,10.0,19,0.00,,,0.00,874,weatherlink.com 1.10,2013-03-19 16:57:00,
2013-03-19 11:12:00,70.0,24.0,29.87,SW,234,5.0,10.0,18,0.00,,,0.00,613,weatherlink.com 1.10,2013-03-19 17:12:00,
2013-03-19 11:27:00,70.0,24.0,29.86,WSW,237,3.0,12.0,18,0.00,,,0.00,751,weatherlink.com 1.10,2013-03-19 17:27:00,
2013-03-19 11:57:00,71.7,26.0,29.86,WSW,244,5.0,11.0,18,0.00,,,0.00,468,weatherlink.com 1.10,2013-03-19 17:57:00,
2013-03-19 12:27:00,70.1,25.0,29.86,WSW,246,2.0,20.0,18,0.00,,,0.00,306,weatherlink.com 1.10,2013-03-19 18:27:00,
2013-03-19 12:42:00,70.8,25.0,29.85,West,259,3.0,9.0,18,0.00,,,0.00,489,weatherlink.com 1.10,2013-03-19 18:42:00,
2013-03-19 12:57:00,71.7,26.0,29.85,WSW,246,0.0,15.0,18,0.00,,,0.00,969,weatherlink.com 1.10,2013-03-19 18:57:00,
2013-03-19 13:12:00,73.0,26.0,29.84,WSW,245,6.0,9.0,17,0.00,,,0.00,935,weatherlink.com 1.10,2013-03-19 19:12:00,
2013-03-19 13:27:00,75.9,27.0,29.83,West,277,1.0,9.0,16,0.00,,,0.00,983,weatherlink.com 1.10,2013-03-19 19:27:00,
2013-03-19 13:42:00,76.2,27.0,29.83,West,266,3.0,17.0,16,0.00,,,0.00,694,weatherlink.com 1.10,2013-03-19 19:42:00,
2013-03-19 13:57:00,74.8,27.0,29.82,WSW,252,1.0,9.0,17,0.00,,,0.00,592,weatherlink.com 1.10,2013-03-19 19:57:00,
2013-03-19 14:12:00,74.9,26.0,29.81,WSW,249,3.0,20.0,16,0.00,,,0.00,847,weatherlink.com 1.10,2013-03-19 20:12:00,
2013-03-19 14:27:00,75.7,26.0,29.80,West,266,3.0,15.0,16,0.00,,,0.00,830,weatherlink.com 1.10,2013-03-19 20:27:00,
2013-03-19 14:42:00,75.2,24.0,29.79,WSW,240,5.0,13.0,15,0.00,,,0.00,735,weatherlink.com 1.10,2013-03-19 20:42:00,
2013-03-19 14:57:00,77.2,24.0,29.79,WNW,284,3.0,13.0,14,0.00,,,0.00,786,weatherlink.com 1.10,2013-03-19 20:57:00,
2013-03-19 15:12:00,77.7,25.0,29.78,WSW,246,4.0,18.0,14,0.00,,,0.00,729,weatherlink.com 1.10,2013-03-19 21:12:00,
2013-03-19 15:27:00,77.6,25.0,29.77,SW,230,9.0,12.0,14,0.00,,,0.00,682,weatherlink.com 1.10,2013-03-19 21:27:00,
2013-03-19 15:42:00,78.2,25.0,29.77,WSW,253,5.0,13.0,14,0.00,,,0.00,647,weatherlink.com 1.10,2013-03-19 21:42:00,
2013-03-19 15:57:00,78.9,26.0,29.77,WNW,284,2.0,10.0,14,0.00,,,0.00,612,weatherlink.com 1.10,2013-03-19 21:57:00,
2013-03-19 16:12:00,78.8,26.0,29.76,West,272,6.0,18.0,14,0.00,,,0.00,555,weatherlink.com 1.10,2013-03-19 22:12:00,
2013-03-19 16:27:00,79.2,26.0,29.76,WNW,287,2.0,10.0,14,0.00,,,0.00,513,weatherlink.com 1.10,2013-03-19 22:27:00,
2013-03-19 16:42:00,78.7,24.0,29.76,West,274,2.0,11.0,13,0.00,,,0.00,476,weatherlink.com 1.10,2013-03-19 22:42:00,
2013-03-19 16:57:00,79.0,24.0,29.76,WNW,290,6.0,16.0,13,0.00,,,0.00,420,weatherlink.com 1.10,2013-03-19 22:57:00,
2013-03-19 17:12:00,78.9,26.0,29.77,WNW,288,0.0,13.0,14,0.00,,,0.00,369,weatherlink.com 1.10,2013-03-19 23:12:00,
2013-03-19 17:27:00,78.4,25.0,29.77,West,280,2.0,11.0,14,0.00,,,0.00,318,weatherlink.com 1.10,2013-03-19 23:27:00,
2013-03-19 17:42:00,77.5,25.0,29.77,SW,236,8.0,15.0,14,0.00,,,0.00,276,weatherlink.com 1.10,2013-03-19 23:42:00,
2013-03-19 17:58:00,77.0,24.0,29.77,WNW,285,1.0,12.0,14,0.00,,,0.00,218,weatherlink.com 1.10,2013-03-19 23:58:00,
2013-03-19 18:13:00,76.6,26.0,29.78,WNW,290,2.0,11.0,15,0.00,,,0.00,79,weatherlink.com 1.10,2013-03-20 00:13:00,
2013-03-19 18:28:00,75.0,24.0,29.78,WSW,252,2.0,9.0,15,0.00,,,0.00,33,weatherlink.com 1.10,2013-03-20 00:28:00,
2013-03-19 18:43:00,74.3,25.0,29.79,West,263,3.0,8.0,16,0.00,,,0.00,21,weatherlink.com 1.10,2013-03-20 00:43:00,
2013-03-19 18:58:00,73.5,25.0,29.80,WNW,284,4.0,12.0,16,0.00,,,0.00,11,weatherlink.com 1.10,2013-03-20 00:58:00,
2013-03-19 19:13:00,72.6,24.0,29.80,WNW,295,1.0,6.0,16,0.00,,,0.00,0,weatherlink.com 1.10,2013-03-20 01:13:00,
2013-03-19 19:28:00,72.0,25.0,29.80,WNW,295,0.0,4.0,17,0.00,,,0.00,0,weatherlink.com 1.10,2013-03-20 01:28:00,
2013-03-19 19:43:00,71.4,24.0,29.81,WNW,296,0.0,7.0,17,0.00,,,0.00,0,weatherlink.com 1.10,2013-03-20 01:43:00,
2013-03-19 19:58:00,70.7,24.0,29.82,WNW,296,1.0,2.0,17,0.00,,,0.00,0,weatherlink.com 1.10,2013-03-20 01:58:00,
2013-03-19 20:13:00,70.4,23.0,29.82,WNW,296,0.0,5.0,17,0.00,,,0.00,0,weatherlink.com 1.10,2013-03-20 02:13:00,
2013-03-19 20:28:00,69.8,23.0,29.84,WNW,296,0.0,2.0,17,0.00,,,0.00,0,weatherlink.com 1.10,2013-03-20 02:28:00,
2013-03-19 20:43:00,69.3,24.0,29.84,WNW,295,4.0,7.0,18,0.00,,,0.00,0,weatherlink.com 1.10,2013-03-20 02:43:00,
2013-03-19 20:58:00,69.3,24.0,29.85,WNW,295,2.0,3.0,18,0.00,,,0.00,0,weatherlink.com 1.10,2013-03-20 02:58:00,
2013-03-19 21:13:00,68.6,25.0,29.86,WNW,295,4.0,4.0,19,0.00,,,0.00,0,weatherlink.com 1.10,2013-03-20 03:13:00,
2013-03-19 21:28:00,68.2,24.0,29.86,WNW,295,1.0,3.0,19,0.00,,,0.00,0,weatherlink.com 1.10,2013-03-20 03:28:00,
2013-03-19 21:43:00,67.9,24.0,29.87,WNW,296,3.0,4.0,19,0.00,,,0.00,0,weatherlink.com 1.10,2013-03-20 03:43:00,
2013-03-19 21:58:00,67.6,24.0,29.88,NW,306,1.0,6.0,19,0.00,,,0.00,0,weatherlink.com 1.10,2013-03-20 03:58:00,
2013-03-19 22:13:00,66.4,23.0,29.89,NW,310,2.0,7.0,19,0.00,,,0.00,0,weatherlink.com 1.10,2013-03-20 04:13:00,
2013-03-19 22:28:00,66.6,23.0,29.89,NW,319,5.0,8.0,19,0.00,,,0.00,0,weatherlink.com 1.10,2013-03-20 04:28:00,
2013-03-19 22:43:00,64.8,21.0,29.90,NNE,24,2.0,12.0,19,0.00,,,0.00,0,weatherlink.com 1.10,2013-03-20 04:43:00,
2013-03-19 22:58:00,63.7,23.0,29.91,NE,44,7.0,13.0,21,0.00,,,0.00,0,weatherlink.com 1.10,2013-03-20 04:58:00,
2013-03-19 23:13:00,63.0,23.0,29.92,NE,45,6.0,12.0,22,0.00,,,0.00,0,weatherlink.com 1.10,2013-03-20 05:13:00,
2013-03-19 23:28:00,62.7,24.0,29.93,NE,51,7.0,11.0,23,0.00,,,0.00,0,weatherlink.com 1.10,2013-03-20 05:28:00,
2013-03-19 23:43:00,62.3,25.0,29.94,NE,46,3.0,7.0,24,0.00,,,0.00,0,weatherlink.com 1.10,2013-03-20 05:43:00,
2013-03-19 23:58:00,62.1,25.0,29.95,NE,44,3.0,9.0,24,0.00,,,0.00,0,weatherlink.com 1.10,2013-03-20 05:58:00,